This is the latest recevied weather packets stored in our database for station/object YC0TBU-4. If no packets are shown the sender has not sent any weather packets the latest 10 day(s).
| Time | Temp. | Humidity | Pressure | Rain* | Wind** | Luminosity | Snow |
|---|---|---|---|---|---|---|---|
| 1777480567 | 32.78° C | 33% | 1011.6 hPa | - | - | - | - |
| 1777479632 | 33.33° C | 34% | 1011.5 hPa | - | - | - | - |
| 1777478697 | 33.33° C | 34% | 1011.4 hPa | - | - | - | - |
| 1777477762 | 32.22° C | 35% | 1011.7 hPa | - | - | - | - |
| 1777476827 | 32.78° C | 34% | 1011.7 hPa | - | - | - | - |
| 1777475892 | 32.78° C | 34% | 1011.6 hPa | - | - | - | - |
| 1777474957 | 32.78° C | 34% | 1011.6 hPa | - | - | - | - |
| 1777474005 | 31.67° C | 36% | 1011.9 hPa | - | - | - | - |
| 1777473070 | 31.67° C | 36% | 1011.4 hPa | - | - | - | - |
| 1777472119 | 32.78° C | 35% | 1010.9 hPa | - | - | - | - |
| 1777471184 | 33.33° C | 34% | 1010.8 hPa | - | - | - | - |
| 1777470249 | 32.78° C | 35% | 1010.6 hPa | - | - | - | - |
| 1777469314 | 32.22° C | 36% | 1010.3 hPa | - | - | - | - |
| 1777468379 | 32.78° C | 36% | 1009.8 hPa | - | - | - | - |
| 1777467444 | 33.33° C | 35% | 1009.3 hPa | - | - | - | - |
| 1777466514 | 33.89° C | 34% | 1009.1 hPa | - | - | - | - |
| 1777465558 | 33.33° C | 34% | 1009.5 hPa | - | - | - | - |
| 1777464623 | 33.33° C | 34% | 1009.2 hPa | - | - | - | - |
| 1777463688 | 33.33° C | 33% | 1010.2 hPa | - | - | - | - |
| 1777462753 | 33.33° C | 34% | 1009.5 hPa | - | - | - | - |
| 1777461818 | 32.78° C | 35% | 1008.7 hPa | - | - | - | - |
| 1777460883 | 32.78° C | 36% | 1008.6 hPa | - | - | - | - |
| 1777459948 | 33.33° C | 35% | 1008.8 hPa | - | - | - | - |
| 1777459000 | 32.78° C | 35% | 1007.9 hPa | - | - | - | - |
| 1777458062 | 33.33° C | 35% | 1007.8 hPa | - | - | - | - |
* Rain since midnight (hover to see other rain measurements)
** Current wind speed in m/s (hover to see current wind gust speed)